Terug naar catalogus

DELTA 1 DEB

ActiefSSO
NORAD 13535·DEBRIS·🇺🇸 United States

Gelanceerd Jul 29, 1976 vanaf Vandenberg Space Force Base

Loading…

Volgende Passages (komende 24 uur)

TLE

VersSource: Space-Track

Epoch: Sep 14, 2026, 17:27 UTC

1 13535U 76077EH  26257.72746443 -.00000032  00000-0  82350-4 0  9991
2 13535 101.7786 226.6677 0023642  99.0317  77.4784 12.39108133159880

Volg DELTA 1 DEB in realtime met AllMySat

Download on the App Store